Station CPVM2 - 8575437 - Chesapeake Bay Bridge Visibility, MD Image indicating link to RSS feed of recent meteorological observations for station CPVM2


Conditions at CPVM2 as of
(5:00 pm EDT)
2100 GMT on 05/27/2024:
     

Click on the graph icon in the table below to see a time series plot of the last five days of that observation.

5-day plot - Air Temperature Air Temperature (ATMP): 73.6 °F
5-day plot - Dew Point Dew Point (DEWP): 72.0 °F
5-day plot - Visibility Visibility (VIS): 5.9 nmi
NOS Water Level Observation Network Water Level
Previous observations
TIME
(EDT)
5-day plot - Wind Direction
WDIR
 
5-day plot - Wind Speed
WSPD
kts
5-day plot - Wind Gust
GST
kts
5-day plot - Wave Height
WVHT
ft
5-day plot - Dominant Wave Period
DPD
sec
5-day plot - Average Wave Period
APD
sec
5-day plot - Mean Wave Direction
MWD
 
5-day plot - Atmospheric Pressure
PRES
in
5-day plot - Pressure Tendency
PTDY
in
5-day plot - Air Temperature
ATMP
°F
5-day plot - Water Temperature
WTMP
°F
5-day plot - Dew Point
DEWP
°F
5-day plot - Salinity
SAL
psu
5-day plot - Visibility
VIS
nmi
5-day plot - Tide (above MLLW)
TIDE
ft
2024-05-27 04:54 pm--------- 73.6- 72.0- 5.9-
2024-05-27 04:48 pm--------- 73.4- 72.1- 5.9-
2024-05-27 04:42 pm--------- 73.4- 72.0- 5.9-
2024-05-27 04:36 pm--------- 73.4- 72.1- 5.9-
2024-05-27 04:30 pm--------- 73.4- 72.1- 5.9-
2024-05-27 04:24 pm--------- 73.2- 72.3- 5.9-
2024-05-27 04:18 pm--------- 73.0- 72.3- 5.9-
2024-05-27 04:12 pm--------- 73.0- 72.3- 5.9-
2024-05-27 04:06 pm--------- 73.0- 72.3- 5.9-
2024-05-27 04:00 pm--------- 73.0- 72.3- 5.9-
2024-05-27 03:54 pm--------- 72.9- 72.1- 5.9-
2024-05-27 03:48 pm--------- 72.7- 72.3- 5.9-
2024-05-27 03:42 pm--------- 72.3- 72.3- 5.9-
2024-05-27 03:36 pm--------- 72.1- 72.1- 5.9-
2024-05-27 03:30 pm--------- 72.1- 71.8- 5.9-
2024-05-27 03:24 pm--------- 72.3- 71.4- 5.9-
2024-05-27 03:18 pm--------- 72.5- 71.2- 5.9-
2024-05-27 03:12 pm--------- 72.5- 71.4- 5.9-
2024-05-27 03:06 pm--------- 72.3- 71.1- 4.9-
2024-05-27 03:00 pm--------- 72.7- 71.1- 5.9-
2024-05-27 02:54 pm--------- 72.7- 71.4- 5.9-
2024-05-27 02:48 pm--------- 72.7- 71.4- 5.9-
2024-05-27 02:42 pm--------- 72.7- 71.4- 5.9-
2024-05-27 02:36 pm--------- 72.7- 71.2- 5.9-
2024-05-27 02:30 pm--------- 73.0- 71.2- 5.9-
2024-05-27 02:24 pm--------- 73.0- 71.4- 5.9-
2024-05-27 02:18 pm--------- 73.0- 71.1- 5.9-
2024-05-27 02:12 pm--------- 73.2- 71.2- 5.9-
2024-05-27 02:06 pm--------- 73.2- 71.4- 5.9-
2024-05-27 02:00 pm--------- 73.2- 71.4- 5.9-
2024-05-27 01:54 pm--------- 73.2- 71.6- 5.9-
2024-05-27 01:30 pm--------- 73.4- 71.1- 5.9-
2024-05-27 01:24 pm--------- 73.6- 71.2- 5.9-
2024-05-27 01:18 pm--------- 73.4- 71.2- 5.9-
2024-05-27 01:12 pm--------- 73.4- 71.1- 5.9-
2024-05-27 01:06 pm--------- 73.2- 71.1- 5.9-
2024-05-27 01:00 pm--------- 73.2- 71.2- 5.9-
2024-05-27 12:54 pm--------- 73.0- 70.9- 5.9-
2024-05-27 12:48 pm--------- 72.9- 71.1- 5.9-
2024-05-27 12:42 pm--------- 72.7- 71.1- 5.9-
2024-05-27 12:36 pm--------- 72.5- 71.1- 5.9-
2024-05-27 12:30 pm--------- 72.7- 71.4- 5.9-
2024-05-27 12:24 pm--------- 72.5- 71.4- 5.9-
2024-05-27 12:18 pm--------- 72.7- 70.7- 5.9-
2024-05-27 12:12 pm--------- 73.2- 70.7- 5.9-
2024-05-27 12:06 pm--------- 73.6- 70.5- 5.9-
2024-05-27 12:00 pm--------- 73.8- 70.2- 5.9-
2024-05-27 11:54 am--------- 73.9- 70.3- 5.9-
2024-05-27 11:48 am--------- 74.3- 70.3- 5.9-
2024-05-27 11:42 am--------- 74.3- 70.2- 5.9-
2024-05-27 11:36 am--------- 74.5- 70.3- 5.9-
2024-05-27 11:30 am--------- 74.3- 71.1- 5.9-
2024-05-27 11:24 am--------- 74.3- 71.1- 5.9-
2024-05-27 11:18 am--------- 74.3- 71.2- 5.9-
2024-05-27 11:12 am--------- 73.8- 70.9- 5.9-
2024-05-27 11:06 am--------- 73.2- 71.6- 5.9-
2024-05-27 11:00 am--------- 73.6- 71.1- 0.9-
2024-05-27 10:54 am--------- 74.3- 71.1- 5.9-
2024-05-27 10:30 am--------- 73.6- 72.9- 5.9-
2024-05-27 10:24 am--------- 73.4- 72.9- 5.9-
2024-05-27 10:18 am--------- 73.4- 72.7- 5.9-
2024-05-27 10:12 am--------- 73.4- 72.9- 5.9-
2024-05-27 10:06 am--------- 73.6- 72.9- 5.9-
2024-05-27 10:00 am--------- 73.4- 72.7- 5.9-
2024-05-27 09:54 am--------- 73.8- 72.7- 5.9-
2024-05-27 09:48 am--------- 73.4- 72.3- 5.9-
2024-05-27 09:42 am--------- 73.4- 72.1- 5.9-
2024-05-27 09:36 am--------- 73.4- 71.8- 5.9-
2024-05-27 09:30 am--------- 73.4- 71.4- 5.9-
2024-05-27 09:24 am--------- 73.4- 71.2- 5.9-
2024-05-27 09:18 am--------- 73.4- 70.9- 5.9-
2024-05-27 09:12 am--------- 73.2- 71.1- 5.9-
2024-05-27 09:06 am--------- 73.8- 71.2- 5.9-
2024-05-27 09:00 am--------- 73.8- 70.9- 5.9-
2024-05-27 08:54 am--------- 73.8- 70.9- 5.9-
2024-05-27 08:48 am--------- 73.8- 70.9- 5.9-
2024-05-27 08:42 am--------- 73.9- 71.1- 5.9-
2024-05-27 08:36 am--------- 73.8- 71.1- 5.9-
2024-05-27 08:30 am--------- 73.8- 70.9- 5.9-
2024-05-27 08:24 am--------- 73.8- 70.9- 5.9-
2024-05-27 08:18 am--------- 73.8- 70.7- 5.9-
2024-05-27 08:12 am--------- 73.8- 70.9- 5.9-
2024-05-27 08:06 am--------- 73.6- 71.2- 5.9-
2024-05-27 08:00 am--------- 73.4- 71.1- 5.9-
2024-05-27 07:54 am--------- 73.6- 71.1- 5.9-
2024-05-27 07:48 am--------- 73.6- 71.2- 5.9-
2024-05-27 07:42 am--------- 73.0- 71.4- 5.9-
2024-05-27 07:36 am--------- 72.7- 71.8- 5.9-
2024-05-27 07:30 am--------- 72.9- 72.1- 5.9-
2024-05-27 07:24 am--------- 72.9- 72.0- 5.9-
2024-05-27 07:18 am--------- 72.9- 71.6- 5.9-
2024-05-27 07:12 am--------- 72.7- 71.2- 5.9-
2024-05-27 07:06 am--------- 72.7- 71.1- 5.9-
2024-05-27 07:00 am--------- 72.5- 70.9- 5.9-
2024-05-27 06:54 am--------- 72.5- 71.4- 5.9-
2024-05-27 06:48 am--------- 72.7- 71.6- 5.9-
2024-05-27 06:42 am--------- 72.5- 71.6- 5.9-
2024-05-27 06:36 am--------- 72.7- 71.6- 5.9-
2024-05-27 06:30 am--------- 72.7- 71.2- 5.9-
2024-05-27 06:24 am--------- 72.7- 71.2- 5.9-
2024-05-27 06:18 am--------- 72.5- 71.4- 5.9-
2024-05-27 06:12 am--------- 72.3- 71.8- 5.9-
2024-05-27 06:06 am--------- 72.5- 72.0- 5.9-
2024-05-27 06:00 am--------- 72.5- 72.0- 5.9-
2024-05-27 05:54 am--------- 72.7- 72.0- 5.9-
2024-05-27 05:48 am--------- 72.5- 71.8- 5.9-
2024-05-27 05:42 am--------- 72.5- 72.0- 5.9-
2024-05-27 05:36 am--------- 72.5- 72.1- 5.9-
2024-05-27 05:30 am--------- 72.7- 72.3- 5.9-
2024-05-27 05:24 am--------- 72.7- 72.5- 5.9-
2024-05-27 05:18 am--------- 72.5- 72.3- 5.9-
2024-05-27 05:12 am--------- 72.7- 72.5- 5.9-
2024-05-27 05:06 am--------- 72.7- 72.3- 5.9-
2024-05-27 05:00 am--------- 72.5- 72.1- 5.9-
2024-05-27 04:54 am--------- 72.5- 72.3- 5.9-
2024-05-27 04:48 am--------- 72.7- 72.5- 5.9-
2024-05-27 04:42 am--------- 72.7- 72.3- 5.9-
2024-05-27 04:36 am--------- 72.7- 72.5- 5.9-
2024-05-27 04:30 am--------- 72.7- 72.7- 5.9-
2024-05-27 04:24 am--------- 72.5- 72.5- 5.9-
2024-05-27 04:18 am--------- 72.5- 72.5- 5.9-
2024-05-27 04:12 am--------- 72.5- 72.5- 5.9-
2024-05-27 04:06 am--------- 72.5- 72.5- 5.9-
2024-05-27 04:00 am--------- 72.5--- 5.9-
2024-05-27 03:54 am--------- 72.5--- 5.9-
2024-05-27 03:48 am--------- 72.7- 72.7- 5.9-
2024-05-27 03:42 am--------- 72.7- 72.7- 5.9-
2024-05-27 03:36 am--------- 73.0- 73.0- 5.9-
2024-05-27 03:30 am--------- 73.0- 73.0- 5.9-
2024-05-27 03:24 am--------- 73.0- 72.7- 5.9-
2024-05-27 03:18 am--------- 73.0- 72.5- 5.9-
2024-05-27 03:12 am--------- 73.0- 72.3- 5.9-
2024-05-27 03:06 am--------- 72.9- 72.1- 5.9-
2024-05-27 03:00 am--------- 73.2- 72.1- 5.9-
2024-05-27 02:54 am--------- 73.0- 72.0- 5.9-
2024-05-27 02:48 am--------- 73.0- 72.0- 5.9-
2024-05-27 02:42 am--------- 73.0- 71.8- 5.9-
2024-05-27 02:36 am--------- 73.2- 71.8- 5.9-
2024-05-27 02:30 am--------- 73.2- 71.6- 5.9-
2024-05-27 02:24 am--------- 73.4- 71.6- 5.9-
2024-05-27 02:18 am--------- 73.4- 71.6- 5.9-
2024-05-27 02:12 am--------- 73.4- 71.4- 5.9-
2024-05-27 02:06 am--------- 73.4- 71.6- 5.9-
2024-05-27 02:00 am--------- 73.4- 71.4- 5.9-
2024-05-27 01:54 am--------- 73.6- 71.8- 5.9-
2024-05-27 01:48 am--------- 73.6- 71.8- 5.9-
2024-05-27 01:42 am--------- 73.6- 71.8- 5.9-
2024-05-27 01:36 am--------- 73.8- 72.0- 5.9-
2024-05-27 01:30 am--------- 73.8- 72.1- 5.9-
2024-05-27 01:24 am--------- 73.8- 72.1- 5.9-
2024-05-27 01:18 am--------- 73.8- 72.3- 5.9-
2024-05-27 01:12 am--------- 73.9- 72.3- 5.9-
2024-05-27 01:06 am--------- 73.9- 72.3- 5.9-
2024-05-27 01:00 am--------- 73.9- 72.3- 5.9-
2024-05-27 12:54 am--------- 74.1- 72.1- 5.9-
2024-05-27 12:48 am--------- 74.1- 72.0- 5.9-
2024-05-27 12:42 am--------- 74.1- 72.0- 5.9-
2024-05-27 12:36 am--------- 74.1- 71.8- 5.9-
2024-05-27 12:30 am--------- 74.1- 72.3- 5.9-
2024-05-27 12:24 am--------- 74.1- 72.3- 5.9-
2024-05-27 12:18 am--------- 74.1- 72.3- 5.9-
2024-05-27 12:12 am--------- 74.3- 72.1- 5.9-
2024-05-27 12:06 am--------- 74.5- 72.0- 5.9-
2024-05-27 12:00 am--------- 74.7- 72.0- 5.9-
2024-05-26 11:54 pm--------- 74.7- 71.8- 5.9-
2024-05-26 11:30 pm--------- 75.0- 72.0- 5.9-
2024-05-26 11:24 pm--------- 75.0- 72.1- 5.9-
2024-05-26 11:18 pm--------- 75.0- 72.1- 5.9-
2024-05-26 11:12 pm--------- 75.0- 72.0- 5.9-
2024-05-26 11:06 pm--------- 75.2- 72.1- 5.9-
2024-05-26 11:00 pm--------- 75.2- 72.1- 5.9-
2024-05-26 10:54 pm--------- 75.2- 72.5- 5.9-
2024-05-26 10:48 pm--------- 75.4- 72.5- 5.9-
2024-05-26 10:42 pm--------- 75.4- 72.7- 5.9-
2024-05-26 10:36 pm--------- 75.4- 72.9- 5.9-
2024-05-26 09:48 pm--------- 75.9- 73.2- 5.9-
2024-05-26 09:42 pm--------- 75.9- 72.9- 5.9-
2024-05-26 09:36 pm--------- 76.1- 72.9- 5.9-
2024-05-26 09:30 pm--------- 76.1- 72.7- 5.9-
2024-05-26 09:24 pm--------- 76.1- 72.7- 5.9-
2024-05-26 08:30 pm--------- 75.2- 71.6---
2024-05-26 08:24 pm--------- 75.4- 70.9---
2024-05-26 07:00 pm--------- 77.5- 70.7- 5.9-
2024-05-26 06:54 pm--------- 77.2- 72.7- 5.9-
2024-05-26 06:48 pm--------- 76.8- 72.7- 5.9-
2024-05-26 06:42 pm--------- 77.0- 72.3- 5.9-
2024-05-26 06:36 pm--------- 77.0- 72.3- 5.9-
2024-05-26 06:18 pm--------- 76.8- 73.2- 5.9-
2024-05-26 06:12 pm--------- 76.6- 73.8- 5.9-
2024-05-26 06:06 pm--------- 77.0- 73.9- 5.9-
2024-05-26 06:00 pm--------- 77.0- 73.9- 5.9-
2024-05-26 05:54 pm--------- 77.2- 74.8- 5.9-
2024-05-26 05:30 pm--------- 76.8- 73.4- 5.9-
2024-05-26 05:24 pm--------- 76.8- 72.9- 5.9-
2024-05-26 05:18 pm--------- 77.4- 72.5- 5.9-
2024-05-26 05:12 pm--------- 77.9- 72.5- 5.9-
2024-05-26 05:06 pm--------- 77.9- 72.3- 5.9-
2024-05-26 05:00 pm--------- 77.7- 72.5- 5.9-
2024-05-26 04:54 pm--------- 77.9- 72.7- 5.9-